Location: Unspecified
(0.0000°N, 0.0000°E)
Time: 19:09:37
(UTC+01:00)

Cosmos 1733 Rocket - Visible Passes

Search period start: 22 January 2017 00:00
Search period end: 01 February 2017 00:00
Orbit: 605 x 627 km, 82.5° (Epoch: 21 January)

Date Brightness Start Highest point End Pass type
(mag) Time Alt. Az. Time Alt. Az. Time Alt. Az.
25 Jan 5.0 20:44:58 10° SSE 20:46:13 17° SSE 20:46:13 17° SSE visible
26 Jan 4.2 21:00:54 10° S 21:03:22 33° S 21:03:22 33° S visible
27 Jan 4.3 21:17:28 10° SSW 21:20:37 38° SW 21:20:37 38° SW visible
28 Jan 4.7 19:58:14 10° SE 20:00:35 14° E 20:00:48 14° E visible
28 Jan 5.4 21:34:45 10° SW 21:37:57 21° W 21:37:57 21° W visible
29 Jan 3.8 20:13:06 10° SSE 20:16:59 31° E 20:18:14 26° ENE visible
30 Jan 2.9 20:29:01 10° S 20:33:24 71° E 20:35:48 26° NNE visible
31 Jan 3.9 20:45:32 10° SSW 20:49:48 49° W 20:53:31 13° NNW visible
